Weather History for Jerome, ID

Change the Weather History Date:

Wednesday, August 28, 2013

  Actual Average Record
Temperature  
Mean Temperature 75 °F 68 °F  
Max Temperature 88 °F 83 °F 101 °F (1924)
Min Temperature 61 °F 52 °F 35 °F (1960)
Degree Days  
Heating Degree Days 0 2  
Month to date heating degree days 0 12  
Since 1 June heating degree days 78 131  
Since 1 July heating degree days 0 24  
Cooling Degree Days 10 4  
Month to date cooling degree days 269 170  
Year to date cooling degree days 790 453  
Since 1 June cooling degree days 775 440  
Growing Degree Days 24 (Base 50)    
Moisture  
Dew Point 54 °F    
Average Humidity 57    
Maximum Humidity 84    
Minimum Humidity 30    
Precipitation  
Precipitation T in 0.01 in 0.19 in (1920)
Month to date precipitation T 0.22  
Year to date precipitation 2.52 6.82  
Sea Level Pressure  
Sea Level Pressure 29.90 in    
Wind  
Wind Speed 7 mph (ESE)    
Max Wind Speed 13 mph    
Max Gust Speed 21 mph    
Visibility 10 miles    
Events Rain    
T = Trace of Precipitation, MM = Missing Value Source: NWS Daily Summary

Daily Weather History Graph

Daily Weather History Graph

Search for Another Location

Airport:

Trip Planner

Search our weather history database for the weather conditions in past years. The results will help you decide how hot, cold, wet, or windy it might be!

Date:

Astronomy

Aug. 28, 2013 Rise Set
Actual Time 6:58 AM MDT 8:18 PM MDT
Civil Twilight 6:29 AM MDT 8:47 PM MDT
Nautical Twilight 5:53 AM MDT 9:22 PM MDT
Astronomical Twilight 5:16 AM MDT 9:59 PM MDT
Moon 12:05 AM MDT (8/28) 3:03 PM MDT (8/28)
Length of Visible Light 14h 18m
Length of Day
13h 19m
Waning Gibbous, 47% of the Moon is Illuminated
Aug 28
Waning Gibbous
Sep 5
New
Sep 12
First Quarter
Sep 19
Full
Sep 26
Last Quarter

Hourly Weather History & Observations

Time (MDT) Temp. Heat Index Dew Point Humidity Pressure Visibility Wind Dir Wind Speed Gust Speed Precip Events Conditions
12:53 AM 73.0 °F - 53.1 °F 49% 29.81 in 10.0 mi SE 10.4 mph - N/A   Clear
1:53 AM 71.1 °F - 53.1 °F 53% 29.81 in 10.0 mi ENE 9.2 mph - N/A   Clear
2:53 AM 63.0 °F - 55.0 °F 75% 29.83 in 10.0 mi NE 10.4 mph - N/A   Partly Cloudy
3:53 AM 64.9 °F - 55.0 °F 70% 29.83 in 10.0 mi NE 9.2 mph - N/A   Mostly Cloudy
4:53 AM 61.0 °F - 55.0 °F 81% 29.85 in 10.0 mi ENE 5.8 mph - N/A   Clear
5:53 AM 68.0 °F - 52.0 °F 56% 29.85 in 10.0 mi SE 6.9 mph - N/A   Scattered Clouds
6:53 AM 68.0 °F - 53.1 °F 59% 29.88 in 10.0 mi South 4.6 mph - 0.00 in   Scattered Clouds
7:53 AM 69.1 °F - 54.0 °F 58% 29.91 in 10.0 mi SE 3.5 mph - 0.00 in Rain Light Rain
8:53 AM 71.1 °F - 55.0 °F 57% 29.93 in 10.0 mi SSE 4.6 mph - 0.00 in   Clear
9:53 AM 75.9 °F - 53.1 °F 45% 29.94 in 10.0 mi SE 5.8 mph - N/A   Partly Cloudy
10:53 AM 79.0 °F - 53.1 °F 40% 29.95 in 10.0 mi South 6.9 mph - N/A   Clear
11:53 AM 79.0 °F - 50.0 °F 36% 29.96 in 10.0 mi West 3.5 mph - N/A   Clear
12:53 PM 81.0 °F - 50.0 °F 34% 29.94 in 10.0 mi South 5.8 mph - N/A   Partly Cloudy
1:53 PM 82.9 °F - 51.1 °F 33% 29.93 in 10.0 mi Variable 3.5 mph - N/A   Clear
2:53 PM 86.0 °F - 52.0 °F 31% 29.93 in 10.0 mi Variable 3.5 mph - N/A   Clear
3:53 PM 84.9 °F 83.2 °F 53.1 °F 33% 29.91 in 10.0 mi West 3.5 mph - N/A   Clear
4:53 PM 87.1 °F 85.3 °F 55.0 °F 33% 29.91 in 10.0 mi NNW 4.6 mph - N/A   Clear
5:53 PM 87.1 °F 85.1 °F 54.0 °F 32% 29.88 in 10.0 mi NNW 3.5 mph - N/A   Clear
6:53 PM 84.0 °F - 52.0 °F 33% 29.89 in 10.0 mi East 5.8 mph - N/A   Clear
7:53 PM 81.0 °F 80.5 °F 54.0 °F 39% 29.89 in 10.0 mi East 10.4 mph - N/A   Mostly Cloudy
8:53 PM 73.9 °F - 57.9 °F 57% 29.91 in 10.0 mi East 10.4 mph - N/A   Clear
9:53 PM 73.0 °F - 57.0 °F 57% 29.92 in 10.0 mi East 8.1 mph - N/A   Clear
10:53 PM 73.0 °F - 55.9 °F 55% 29.92 in 10.0 mi East 8.1 mph - N/A   Clear
11:53 PM 71.1 °F - 55.0 °F 57% 29.93 in 10.0 mi East 9.2 mph - N/A   Scattered Clouds